Regional Weather Roundup
Issued by NWS

Home | Current Version | Previous Version | Text Only | Print | Product List | Glossary On
Versions: 1 2 3 4 5 6 7 8 9 10 11 12 13 14 15 16 17 18 19 20 21 22 23 24 25 26 27 28 29 30 31 32 33 34 35 36 37 38 39 40 41 42 43 44 45 46 47 48 49 50
000
ASUS43 KMPX 250901
RWRMN
WEATHER ROUNDUP FOR MINNESOTA
NATIONAL WEATHER SERVICE TWIN CITIES/CHANHASSEN MN
400 AM CDT SAT MAR 25 2017


NOTE: "FAIR" INDICATES FEW OR NO CLOUDS BELOW 12,000 FEET WITH NO
SIGNIFICANT WEATHER AND/OR OBSTRUCTIONS TO VISIBILITY. N/A MEANS
CURRENT SKY AND/OR WEATHER CONDITIONS ARE NOT AVAILABLE.

MNZ060>063-068>070-251000-
   Twin Cities Metro

CITY           SKY/WX    TMP DP  RH WIND       PRES   REMARKS
TWIN CITIES    CLOUDY    38  31  76 NE10      30.16F
ST PAUL        CLOUDY    38  32  79 NE8       30.17F
CRYSTAL        CLOUDY    37  29  72 NE9       30.16F
BLAINE         CLOUDY    37  34  87 NE8       30.17F
LAKEVILLE      CLOUDY    36  34  93 NE9       30.13F
EDEN PRAIRIE   CLOUDY    38  31  76 NE12      30.14F
SOUTH ST PAUL  CLOUDY    38  32  79 NE12      30.15S
LAKE ELMO      CLOUDY    36  32  87 NE8       30.17S
$$
MNZ001>005-007-008-013>017-022>024-027-028-251000-
   Northwest Minnesota

CITY           SKY/WX    TMP DP  RH WIND       PRES   REMARKS
BEMIDJI        CLOUDY    33  29  88 E3        30.20F
HALLOCK        CLEAR     28  27  93 CALM      30.19F
ROSEAU         CLEAR     28  25  86 SE6       30.22F WCI  22
WARROAD        CLOUDY    28  25  86 SE5       30.23S WCI  23
THIEF RVR FALL CLEAR    N/A N/A N/A SE8       30.20F
CROOKSTON      CLEAR     30  28  93 SE9       30.20F WCI  22
FOSSTON        CLEAR     25  25 100 E3        30.20F
DETROIT LAKES  CLOUDY    34  30  86 SE5       30.19S WCI  30
MOORHEAD       CLEAR     28  27  93 E3        30.20F
PARK RAPIDS    CLOUDY    36  27  69 SE8       30.18F
MAHNOMEN       FAIR      28  26  94 E3        30.18F
$$
MNZ006-009>011-018-025>026-251000-
   North Central Minnesota

CITY           SKY/WX    TMP DP  RH WIND       PRES   REMARKS
BAUDETTE       CLEAR     28  24  85 E8        30.23S WCI  20
FLAG ISLAND    CLOUDY    30  25  80 SE7       30.23S WCI  23
INTL FALLS     CLOUDY    33  28  81 E5        30.25S WCI  29
WASKISH        CLOUDY    32  28  86 CALM      30.24S
BIG FORK       CLOUDY    34  30  86 SE3       30.23F
LONGVILLE      CLOUDY    34  30  86 CALM      30.21S
GRAND RAPIDS   CLOUDY    33  30  88 VRB5      30.24F WCI  29
CRANE LAKE     CLOUDY    32  30  93 CALM      30.28F
ORR            CLOUDY    34  28  80 CALM      30.23F
COOK           CLOUDY    32  30  93 CALM      30.25F
WALKER         CLOUDY    33  30  88 SE3       30.20F
$$
MNZ012-019>021-037-251000-
   Northeast Minnesota

CITY           SKY/WX    TMP DP  RH WIND       PRES   REMARKS
DULUTH         CLOUDY    32  30  92 E13       30.23F WCI  22
ELY            CLOUDY    30  27  86 E6        30.25F WCI  24
HIBBING        CLOUDY    31  30  96 E6        30.24F WCI  25
EVELETH        CLOUDY    32  28  85 E3        30.26S
DULUTH HARBOR  CLOUDY    36  32  87 NE15      30.27F
TWO HARBORS    CLOUDY    36  30  80 NE7       30.25S
SILVER BAY     CLOUDY    34  28  80 NE5       30.26S WCI  30
GRAND MARAIS     N/A     34  25  69 NE10      30.32S WCI  26
G MARAIS ARPRT CLOUDY    27  19  74 NE12      30.27S WCI  16
$$
MNZ029>031-032-039>041-046>048-054>057-064-251000-
   West Central Minnesota

CITY           SKY/WX    TMP DP  RH WIND       PRES   REMARKS
FERGUS FALLS   CLEAR     30  27  86 E5        30.22S WCI  25
WHEATON        PTCLDY    25  25 100 E3        30.20F FOG
MORRIS         CLOUDY    36  30  80 E8        30.17S
ALEXANDRIA     CLOUDY    34  30  85 E13       30.18S WCI  25
ELBOW LAKE     FAIR      33  30  89 SE8       30.18F WCI  26
WADENA         CLOUDY    36  28  75 E7        30.18F
GLENWOOD       CLOUDY    34  30  86 E14       30.17F WCI  24
APPLETON       CLOUDY    37  32  81 CALM      30.17S
BENSON         CLOUDY    37  28  70 E8        30.19S
ORTONVILLE     CLOUDY    32  30  93 E3        30.17S
MADISON        CLOUDY    37  36  93 NE7       30.16S
WILLMAR        CLOUDY    37  34  87 E10       30.17S
$$
MNZ033>034-036-042>043-049>051-058-059-251000-
   Central Minnesota

CITY           SKY/WX    TMP DP  RH WIND       PRES   REMARKS
ST CLOUD       CLOUDY    35  30  82 NE8       30.18F WCI  29
SAUK CENTRE    CLOUDY    33  30  88 E8        30.18F WCI  26
PAYNESVILLE      N/A     35  32  87 NE8       30.18S WCI  29
AITKIN         CLOUDY    36  30  80 NE3       30.21F
PINE RIVER     CLOUDY    34  30  86 E5        30.24S WCI  30
BRAINERD       CLOUDY    34  31  88 E7        30.22S WCI  28
STAPLES        CLOUDY    36  28  75 E5        30.19F
LONG PRAIRIE   CLOUDY    32  30  93 NE12G17   30.19F WCI  23
LITTLE FALLS   CLOUDY    32  28  86 E7        30.21S WCI  26
LITCHFIELD     CLOUDY    37  34  87 NE8       30.16F
BUFFALO        CLOUDY    36  31  83 N8        30.17F
MAPLE LAKE     CLOUDY    37  33  85 NE9       30.18S
HUTCHINSON     CLOUDY    37  33  88 NE9       30.16S
$$
MNZ037-044-045-052-053-251000-
   East Central Minnesota

CITY           SKY/WX    TMP DP  RH WIND       PRES   REMARKS
PRINCETON      CLOUDY    37  30  75 NE7       30.19F
MORA           CLOUDY    32  30  93 NE3       30.22F
CAMBRIDGE      CLOUDY    37  28  70 NE5       30.18F
RUSH CITY      CLOUDY    35  30  82 NE8       30.20F WCI  28
MOOSE LAKE     CLOUDY    34  32  93 NE3       30.21F
HINCKLEY       CLOUDY    34  32  93 E7        30.22F WCI  28
CLOQUET        CLOUDY    34  30  86 E8        30.23F WCI  27
MCGREGOR       CLOUDY    34  32  93 E7        30.23S WCI  28
$$
MNZ071>073-080-081-089-090-097-098-251000-
   Southwest Minnesota

CITY           SKY/WX    TMP DP  RH WIND       PRES   REMARKS
MONTEVIDEO     CLOUDY    36  32  87 E9        30.17F
GRANITE FALLS  CLOUDY    37  33  85 NE10      30.16F
CANBY          CLOUDY    36  33  91 NE3       30.16S
MARSHALL       CLOUDY    35  32  88 NE10      30.13F WCI  27
REDWOOD FALLS  CLOUDY    37  32  82 NE7       30.13F
OLIVIA         CLOUDY    36  32  87 NE9       30.13F
PIPESTONE      CLOUDY    34  30  86 NE7       30.09R FOG     WCI  28
WINDOM         CLOUDY    36  36 100 NE9       30.08F
WORTHINGTON    CLOUDY    34  34 100 NE18      30.07S FOG     WCI  23
JACKSON        CLOUDY    36  34  93 NE17G24   30.07S FOG
TRACY          CLOUDY    35  34  94 NE12G17   30.11F WCI  27
SLAYTON        CLOUDY    32  32  99 NE13G20   30.10R FOG     WCI  23
$$
MNZ065>067-074>077-082>085-091>093-251000-
   South Central Minnesota

CITY           SKY/WX    TMP DP  RH WIND       PRES   REMARKS
MANKATO        CLOUDY    38  34  85 NE15      30.11F
NEW ULM        CLOUDY    37  34  87 NE9       30.11F
ST JAMES       CLOUDY    37  36  93 NE10      30.10F
FAIRMONT       CLOUDY    37  35  92 NE16      30.07F
GLENCOE        CLOUDY    37  35  92 NE6       30.14S
FARIBAULT      CLOUDY    37  34  87 N8        30.12S
OWATONNA       CLOUDY    37  34  87 NE12      30.10S
WASECA         CLOUDY    36  34  93 NE15G22   30.10S
ALBERT LEA     CLOUDY    37  36  93 NE14G22   30.05F FOG
$$
MNZ078>079-086>088-094>096-251000-
   Southeast Minnesota

CITY           SKY/WX    TMP DP  RH WIND       PRES   REMARKS
ROCHESTER      CLOUDY    36  35  96 NE16      30.07F
RED WING       CLOUDY    39  30  70 E8G18     30.12F
STANTON        CLOUDY    38  34  85 NE12      30.11F
DODGE CENTER   CLOUDY    36  36 100 NE12G18   30.08S
WINONA         CLOUDY    37  34  87 E9        30.13S
AUSTIN         CLOUDY    37  36  93 NE14      30.06S
PRESTON        CLOUDY    36  34  92 NE12G18   30.07R
$$
ABBREVIATIONS USED IN REMARKS
   TC - TEMPERATURES IN CELSIUS
  WCI - WIND CHILL INDEX
   HX - HEAT INDEX
  VSB - VISIBILITY
$$




USA.gov is the U.S. government's official web portal to all federal, state and local government web resources and services.